Location: algorfa
(38.0849°N, 0.7965°W)
Time: 01:14:43
(UTC+02:00)

X-37B - Visible Passes

Search period start: 01 October 2022 00:00
Search period end: 11 October 2022 00:00
Orbit: 329 x 342 km, 45.0° (Epoch: 29 September)

Date Brightness Start Highest point End Pass type
(mag) Time Alt. Az. Time Alt. Az. Time Alt. Az.
01 Oct 2.3 07:01:40 11° NW 07:03:50 23° N 07:06:13 10° ENE visible
02 Oct 3.5 05:50:05 14° NE 05:50:05 14° NE 05:50:44 10° NE visible
02 Oct 1.7 07:21:48 10° NW 07:24:30 35° NNE 07:27:11 10° E visible
03 Oct 2.6 06:09:46 21° NNE 06:09:46 21° NNE 06:11:38 10° ENE visible
04 Oct 1.6 06:29:32 33° N 06:29:55 34° NNE 06:32:36 10° E visible
05 Oct 0.3 06:49:24 35° NW 06:50:28 78° NNE 06:53:21 10° ESE visible
06 Oct 1.1 07:09:23 20° W 07:10:50 35° SW 07:13:30 10° SE visible
07 Oct 3.4 05:58:14 14° ESE 05:58:14 14° ESE 05:58:46 10° ESE visible
07 Oct 2.6 07:29:40 10° WSW 07:31:03 13° SW 07:32:25 10° SSW visible
08 Oct 3.1 06:18:28 13° SSE 06:18:28 13° SSE 06:18:57 10° SE visible
